Regional Weather Roundup
Issued by NWS Sioux Falls, SD

Home | Current Version | Previous Version | Graphics & Text | Print | Product List | Glossary Off
Versions: 1 2 3 4 5 6 7 8 9 10 11 12 13 14 15 16 17 18 19 20 21 22 23 24 25 26 27 28 29 30 31 32 33 34 35 36 37 38 39 40 41 42 43 44 45 46 47 48 49 50

000
ASUS43 KFSD 060002
RWRFSD

WEATHER ROUNDUP FOR SE SOUTH DAKOTA/SW MINNESOTA/NW IOWA
NATIONAL WEATHER SERVICE SIOUX FALLS SD
600 PM CST THU MAR 05 2015

NOTE: "FAIR" INDICATES FEW OR NO CLOUDS BELOW 12,000 FEET WITH NO
SIGNIFICANT WEATHER AND OR OBSTRUCTIONS TO VISIBILITY.


SDZ038>040-050-052>070-060100-
SOUTHEAST SOUTH DAKOTA

CITY           SKY/WX    TMP DP  RH WIND       PRES   REMARKS
CHAMBERLAIN    NOT AVBL
HURON          MOCLDY    33   9  36 S7        30.18F WCI  27
6HR MIN TEMP:  19; 6HR MAX TEMP:  34;

MADISON        FAIR      27   9  46 S12       30.22S WCI  16
MITCHELL       PTCLDY    35   5  28 S10       30.21F WCI  27
6HR MIN TEMP:  23; 6HR MAX TEMP:  37;

SIOUX FALLS    PTCLDY    28   6  39 S13       30.26F WCI  17
6HR MIN TEMP:  16; 6HR MAX TEMP:  30;

WINNER         MOCLDY    42  15  33 W9        30.14R
YANKTON        CLEAR     36   3  25 S13       30.28S
$$

MNZ071-072-080-081-089-090-097-098-060100-
SOUTHWEST MINNESOTA

CITY           SKY/WX    TMP DP  RH WIND       PRES   REMARKS
FAIRMONT       CLEAR     18   3  53 S9        30.36F WCI   6
JACKSON        CLEAR     21   5  49 S13       30.34F WCI   9
LUVERNE        CLEAR     27  10  50 S12       30.29S WCI  16
MARSHALL       CLEAR     21   7  53 S9        30.31F WCI  11
6HR MIN TEMP:  12; 6HR MAX TEMP:  21;

MONTEVIDEO     CLEAR     21   9  58 SW8       30.31F WCI  12
PIPESTONE      CLEAR     21  10  63 S9        30.25F WCI  11
REDWOOD FALLS  CLEAR     19   6  57 S8        30.34F WCI   9
TRACY          CLEAR     22   8  54 S8        30.30F WCI  13
WINDOM         CLEAR     21   7  53 S7        30.32F WCI  13
WORTHINGTON    CLEAR     21   5  49 S12       30.32F WCI   9
$$

IAZ001>003-012>014-020>022-031-032-NEZ013-014-SDZ071-060100-
NORTHWEST IOWA

CITY           SKY/WX    TMP DP  RH WIND       PRES   REMARKS
DENISON        CLEAR     25   5  42 S12       30.37F WCI  14
ESTHERVILLE    CLEAR     17   4  56 S12       30.36F WCI   4
SIOUX CITY     CLEAR     31   5  33 S13       30.35S WCI  21
6HR MIN TEMP:  21; 6HR MAX TEMP:  33;

SPENCER        CLEAR     20   6  55 S9        30.36F WCI   9
6HR MIN TEMP:  13; 6HR MAX TEMP:  22;

$$

ABBREVIATIONS USED IN REMARKS
   TC - TEMPERATURE IN CELSIUS
  WCI - WIND CHILL INDEX
   HX - HEAT INDEX
  VSB - VISIBILITY




USA.gov is the U.S. government's official web portal to all federal, state and local government web resources and services.